TimeEDT,TemperatureF,Dew PointF,Humidity,Sea Level PressureIn,VisibilityMPH,Wind Direction,Wind SpeedMPH,Gust SpeedMPH,PrecipitationIn,Events,Conditions,WindDirDegrees,DateUTC
12:36 AM,75.2,73.4,94,30.11,10.0,ESE,5.8,-,N/A,,Mostly Cloudy,110,2013-07-04 04:36:00
12:45 AM,75.2,73.4,94,30.11,10.0,ESE,5.8,-,N/A,,Mostly Cloudy,120,2013-07-04 04:45:00
12:53 AM,75.0,73.0,94,30.10,10.0,ESE,5.8,-,N/A,,Mostly Cloudy,110,2013-07-04 04:53:00
1:15 AM,75.2,73.4,94,30.09,10.0,ESE,8.1,-,N/A,,Scattered Clouds,110,2013-07-04 05:15:00
1:53 AM,75.0,73.0,94,30.07,10.0,East,5.8,-,N/A,,Clear,90,2013-07-04 05:53:00
2:53 AM,73.9,73.0,97,30.07,10.0,East,10.4,-,N/A,,Clear,100,2013-07-04 06:53:00
3:17 AM,73.4,71.6,94,30.07,10.0,ESE,9.2,-,N/A,,Partly Cloudy,110,2013-07-04 07:17:00
3:53 AM,73.9,72.0,93,30.06,10.0,East,6.9,-,N/A,,Clear,100,2013-07-04 07:53:00
4:53 AM,73.0,71.1,93,30.05,10.0,ESE,9.2,-,N/A,,Clear,110,2013-07-04 08:53:00
5:53 AM,73.0,71.1,93,30.05,10.0,ESE,9.2,-,N/A,,Clear,110,2013-07-04 09:53:00
6:53 AM,73.0,71.1,93,30.06,10.0,ESE,9.2,-,N/A,,Clear,110,2013-07-04 10:53:00
7:53 AM,75.9,72.0,87,30.09,10.0,ESE,8.1,-,N/A,,Clear,120,2013-07-04 11:53:00
8:53 AM,79.0,73.0,82,30.09,10.0,SE,13.8,-,N/A,,Clear,130,2013-07-04 12:53:00
9:53 AM,81.0,73.9,79,30.10,10.0,SE,15.0,-,N/A,,Clear,140,2013-07-04 13:53:00
10:53 AM,82.9,73.9,74,30.10,10.0,SE,12.7,-,N/A,,Partly Cloudy,140,2013-07-04 14:53:00
11:53 AM,84.9,73.9,69,30.11,10.0,SE,15.0,23.0,N/A,,Mostly Cloudy,130,2013-07-04 15:53:00
12:08 PM,84.2,73.4,70,30.11,10.0,SSE,16.1,-,N/A,,Scattered Clouds,150,2013-07-04 16:08:00
12:53 PM,87.1,73.0,63,30.11,10.0,SE,15.0,20.7,N/A,,Scattered Clouds,140,2013-07-04 16:53:00
1:53 PM,89.1,71.1,55,30.09,10.0,SE,15.0,21.9,N/A,,Partly Cloudy,130,2013-07-04 17:53:00
2:53 PM,89.1,75.9,65,30.07,10.0,SSW,13.8,-,N/A,,Scattered Clouds,210,2013-07-04 18:53:00
3:44 PM,80.6,68.0,65,30.09,10.0,NE,3.5,-,N/A,,Mostly Cloudy,40,2013-07-04 19:44:00
3:53 PM,80.1,70.0,71,30.09,10.0,East,11.5,-,N/A,,Overcast,90,2013-07-04 19:53:00
4:13 PM,75.2,71.6,89,30.08,10.0,East,3.5,-,0.00,Rain,Light Rain,80,2013-07-04 20:13:00
4:53 PM,77.0,72.0,84,30.07,10.0,Calm,Calm,-,0.00,,Partly Cloudy,0,2013-07-04 20:53:00
5:53 PM,82.9,75.0,77,30.07,10.0,East,3.5,-,N/A,,Clear,90,2013-07-04 21:53:00
6:28 PM,80.6,75.2,84,30.09,10.0,Calm,Calm,-,0.00,,Mostly Cloudy,0,2013-07-04 22:28:00
6:44 PM,78.8,75.2,89,30.10,10.0,East,9.2,-,0.00,,Mostly Cloudy,80,2013-07-04 22:44:00
6:53 PM,79.0,75.0,88,30.09,10.0,East,6.9,-,0.00,,Mostly Cloudy,80,2013-07-04 22:53:00
7:10 PM,77.0,73.4,89,30.10,2.0,ENE,3.5,-,0.08,Rain,Rain,60,2013-07-04 23:10:00
7:18 PM,78.8,73.4,83,30.10,10.0,East,3.5,-,0.11,Rain,Rain,80,2013-07-04 23:18:00
7:53 PM,78.1,73.9,87,30.10,10.0,Calm,Calm,-,0.11,Rain,Rain,0,2013-07-04 23:53:00
8:53 PM,77.0,73.9,90,30.13,10.0,NNE,4.6,-,0.05,Rain,Rain,30,2013-07-05 00:53:00
9:53 PM,75.9,73.9,94,30.12,3.0,NE,5.8,-,0.00,,Mostly Cloudy,50,2013-07-05 01:53:00
10:01 PM,75.2,73.4,94,30.12,2.0,North,4.6,-,N/A,,Mostly Cloudy,10,2013-07-05 02:01:00
10:22 PM,75.2,73.4,94,30.13,4.0,NE,5.8,-,N/A,,Overcast,50,2013-07-05 02:22:00
10:53 PM,75.9,73.0,91,30.13,8.0,East,5.8,-,N/A,,Mostly Cloudy,80,2013-07-05 02:53:00
11:53 PM,75.9,73.0,91,30.13,8.0,East,6.9,-,N/A,,Clear,80,2013-07-05 03:53:00